WAYLND-WX Weather Reports


Display with metric or nautical units.
time (UTC)temp
F
wind
direction
speed
MPH
gust
MPH
rain 1hr
in
rain 24hr
in
rain mn
in
humidity
%
barometer
mb
20260505163103 53 290 13.0 0.0 0.00 0.00 0.00 41 978.9
20260505161544 52 281 12.0 0.0 0.00 0.00 0.00 41 978.9
20260505160117 52 273 11.0 0.0 0.00 0.00 0.00 41 978.9
20260505153106 51 269 13.0 0.0 0.00 0.00 0.00 41 979.7
20260505151544 50 277 12.0 0.0 0.00 0.00 0.00 41 979.7
20260505150125 51 284 13.0 0.0 0.00 0.00 0.00 41 979.7
20260505140125 50 279 12.0 0.0 0.00 0.00 0.00 42 979.5
20260505130117 50 299 11.0 0.0 0.00 0.00 0.00 57 979.5
20260505124543 51 282 12.0 0.0 0.00 0.00 0.00 72 978.8
20260505123103 51 301 7.0 0.0 0.00 0.00 0.00 73 977.1
20260505121544 50 301 8.0 0.0 0.00 0.00 0.00 73 977.1
20260505120129 49 292 7.0 0.0 0.00 0.00 0.00 73 977.1
20260505114544 49 287 9.0 0.0 0.00 0.00 0.00 70 977.3
20260505113101 49 285 8.0 0.0 0.00 0.00 0.00 71 975.8
20260505111543 49 297 6.0 0.0 0.00 0.00 0.00 71 975.7
20260505110121 48 288 8.0 0.0 0.00 0.00 0.00 71 975.7
20260505101543 50 269 10.0 0.0 0.00 0.00 0.00 59 974.3
20260505100120 50 268 10.0 0.0 0.00 0.00 0.00 59 974.3
20260505094543 50 271 10.0 0.0 0.00 0.00 0.00 60 974.5
20260505093106 51 275 10.0 0.0 0.00 0.00 0.00 63 974.3
20260505091543 51 263 9.0 0.0 0.00 0.00 0.00 63 974.3
20260505090123 51 261 10.0 0.0 0.00 0.00 0.00 63 974.3
20260505084541 52 272 10.0 0.0 0.00 0.00 0.00 73 974.5
20260505083102 52 271 9.0 0.0 0.00 0.00 0.00 79 973.8
20260505081543 52 264 8.0 0.0 0.00 0.00 0.00 79 973.8
20260505080115 52 256 8.0 0.0 0.00 0.00 0.00 65 974.0
20260505074544 53 254 9.0 0.0 0.00 0.00 0.00 77 973.2
20260505073104 54 252 8.0 0.0 0.00 0.00 0.00 77 973.2
20260505071544 55 248 10.0 0.0 0.00 0.00 0.00 77 973.3
20260505070117 55 242 9.0 0.0 0.00 0.00 0.00 77 973.3
20260505064543 55 245 9.0 0.0 0.00 0.00 0.00 74 973.5
20260505063100 56 239 10.0 0.0 0.00 0.00 0.00 77 973.1
20260505061544 56 241 11.0 0.0 0.00 0.00 0.00 77 973.1
20260505060127 57 243 12.0 0.0 0.00 0.00 0.00 77 973.1
20260505054544 57 237 13.0 0.0 0.00 0.00 0.00 74 974.2
20260505053107 58 245 9.0 0.0 0.00 0.00 0.00 66 972.8
20260505051543 59 250 10.0 0.0 0.00 0.00 0.00 66 972.8
20260505050115 59 242 10.0 0.0 0.00 0.00 0.00 66 972.8
20260505041543 61 207 11.0 0.0 0.00 0.00 0.00 61 972.7
20260505040120 62 221 13.0 0.0 0.00 0.00 0.00 61 972.7
20260505034540 62 226 15.0 0.0 0.00 0.00 0.00 62 972.6
20260505033103 61 210 12.0 0.0 0.00 0.00 0.00 61 972.5
20260505031543 61 197 16.0 0.0 0.00 0.00 0.00 61 972.5
20260505030116 62 201 15.0 0.0 0.00 0.00 0.00 61 972.5
20260505024543 62 205 14.0 0.0 0.00 0.00 0.00 59 972.8
20260505023103 63 211 17.0 0.0 0.00 0.00 0.00 59 972.8
20260505021542 63 212 16.0 0.0 0.00 0.00 0.00 59 972.8
20260505020116 63 212 18.0 0.0 0.00 0.00 0.00 59 972.8
20260505014542 64 211 20.0 0.0 0.00 0.00 0.00 68 972.1
20260505013101 64 209 20.0 0.0 0.00 0.00 0.00 68 972.1
20260505011543 62 203 18.0 0.0 0.00 0.00 0.00 68 972.1
20260505010112 64 207 18.0 0.0 0.00 0.00 0.00 68 972.1
20260505004543 65 207 17.0 0.0 0.00 0.00 0.00 39 972.3
20260505003100 67 201 14.0 0.0 0.00 0.00 0.00 43 973.0
20260505001542 67 194 9.0 0.0 0.00 0.00 0.00 43 973.0
20260505000121 68 201 6.0 0.0 0.00 0.00 0.00 43 973.0
20260504234543 69 218 7.0 0.0 0.00 0.00 0.00 35 973.0
20260504233101 70 237 9.0 0.0 0.00 0.00 0.00 33 972.9
20260504231543 71 238 9.0 0.0 0.00 0.00 0.00 33 972.9
20260504230109 71 246 11.0 0.0 0.00 0.00 0.00 33 972.9
20260504224543 72 248 14.0 0.0 0.00 0.00 0.00 34 972.8
20260504223103 72 248 16.0 0.0 0.00 0.00 0.00 34 973.1
20260504221543 72 251 16.0 0.0 0.00 0.00 0.00 34 973.1
20260504220119 72 244 18.0 0.0 0.00 0.00 0.00 34 973.1
20260504214542 73 239 19.0 0.0 0.00 0.00 0.00 36 974.1
20260504213104 73 238 18.0 0.0 0.00 0.00 0.00 36 974.1
20260504211542 73 238 18.0 0.0 0.00 0.00 0.00 37 973.0
20260504210115 73 242 18.0 0.0 0.00 0.00 0.00 37 973.0
20260504204547 72 240 20.0 0.0 0.00 0.00 0.00 37 973.7
20260504203058 73 237 21.0 0.0 0.00 0.00 0.00 37 973.7
20260504201548 73 237 20.0 0.0 0.00 0.00 0.00 37 973.7
20260504200113 73 234 19.0 0.0 0.00 0.00 0.00 34 973.1
20260504194548 73 234 21.0 0.0 0.00 0.00 0.00 32 973.9
20260504193107 73 234 21.0 0.0 0.00 0.00 0.00 32 973.9
20260504191549 73 229 20.0 0.0 0.00 0.00 0.00 32 973.9
20260504190117 73 231 20.0 0.0 0.00 0.00 0.00 32 973.9
20260504184544 73 227 20.0 0.0 0.00 0.00 0.00 25 975.1
20260504183109 73 226 18.0 0.0 0.00 0.00 0.00 27 974.7
20260504181548 73 226 17.0 0.0 0.00 0.00 0.00 27 974.7
20260504180125 72 229 17.0 0.0 0.00 0.00 0.00 27 974.7
20260504174547 72 233 16.0 0.0 0.00 0.00 0.00 34 975.7
20260504173104 72 234 17.0 0.0 0.00 0.00 0.00 31 975.4
20260504171547 71 231 17.0 0.0 0.00 0.00 0.00 31 975.4
20260504170114 70 229 17.0 0.0 0.00 0.00 0.00 32 975.2